Back to catalog

QIANFAN-211

AliveCommunicationsPO
NORAD 69810·PAYLOAD·🇨🇳 China

Launched Jul 4, 2026 from Taiyuan Satellite Launch Center

Loading…

Next Passes (next 24 hours)

TLE

FreshSource: Space-Track

Epoch: Sep 14, 2026, 13:29 UTC

1 69810U 26153L   26257.56185957  .00000307  00000-0  15267-3 0  9993
2 69810  88.9982 352.0911 0007425   5.7405 354.3865 14.14538433 10236

Track QIANFAN-211 in real time with AllMySat

Download on the App Store